BAW825 EIDW-EGLL

Flight info

Callsign BAW825
Flight time N/A
Altitude 35000
Route PESIT4E PESIT DCT BAKUR DCT GUBJE DCT DAVAZ DCT AVZAC DCT INFEC DCT JETZI DCT AMFUL DCT ORZEB/N0422F230 P2 SIRIC
Aircraft A319/M-SDE3FGHIRWY/LB1

Departure

Time 2026-04-30 10:12
Airport Dublin Airport (EIDW)

Arrival

Time N/A
Airport London Heathrow Airport (EGLL)
Time Latitude Longitude Altitude Speed Heading
2026-04-30 09:56 53.42312 -6.23960 215 ft 0 kts 90°
2026-04-30 10:03 53.42312 -6.23984 214 ft 4 kts 93°
2026-04-30 10:03 53.42315 -6.24028 211 ft 4 kts 106°
2026-04-30 10:03 53.42326 -6.24064 218 ft 4 kts 154°
2026-04-30 10:04 53.42334 -6.24068 214 ft 0 kts 225°
2026-04-30 10:07 53.42314 -6.24097 211 ft 8 kts 212°
2026-04-30 10:07 53.42237 -6.24145 212 ft 15 kts 205°
2026-04-30 10:07 53.42220 -6.24164 221 ft 16 kts 218°
2026-04-30 10:08 53.42159 -6.24324 214 ft 19 kts 275°
2026-04-30 10:08 53.42172 -6.24558 211 ft 22 kts 275°
2026-04-30 10:08 53.42186 -6.24833 211 ft 25 kts 274°
2026-04-30 10:08 53.42202 -6.25142 211 ft 29 kts 275°
2026-04-30 10:09 53.42223 -6.25485 219 ft 30 kts 275°
2026-04-30 10:09 53.42241 -6.25829 211 ft 30 kts 275°
2026-04-30 10:09 53.42262 -6.26196 211 ft 30 kts 275°
2026-04-30 10:09 53.42280 -6.26549 216 ft 31 kts 275°
2026-04-30 10:10 53.42301 -6.26928 211 ft 35 kts 275°
2026-04-30 10:10 53.42324 -6.27328 211 ft 33 kts 275°
2026-04-30 10:10 53.42346 -6.27728 211 ft 36 kts 275°
2026-04-30 10:10 53.42366 -6.28086 216 ft 23 kts 275°
2026-04-30 10:11 53.42346 -6.28323 211 ft 19 kts 215°
2026-04-30 10:11 53.42228 -6.28258 213 ft 16 kts 161°
2026-04-30 10:11 53.42192 -6.28099 217 ft 26 kts 94°
2026-04-30 10:11 53.42151 -6.27333 211 ft 107 kts 96°
2026-04-30 10:12 53.42061 -6.25790 520 ft 140 kts 96°
2026-04-30 10:12 53.41978 -6.24171 1300 ft 139 kts 97°
2026-04-30 10:12 53.41887 -6.22525 1911 ft 148 kts 99°
2026-04-30 10:12 53.41781 -6.20677 2249 ft 170 kts 100°
2026-04-30 10:13 53.41657 -6.18556 2549 ft 196 kts 101°
2026-04-30 10:13 53.41514 -6.16146 2971 ft 220 kts 102°
2026-04-30 10:13 53.41354 -6.13469 3585 ft 240 kts 101°
2026-04-30 10:13 53.41196 -6.10672 4461 ft 247 kts 101°
2026-04-30 10:14 53.41038 -6.07772 5390 ft 252 kts 100°
2026-04-30 10:14 53.40866 -6.04822 6318 ft 256 kts 103°
2026-04-30 10:14 53.38870 -6.00200 8049 ft 255 kts 153°
2026-04-30 10:15 53.37130 -5.99500 8846 ft 264 kts 177°
2026-04-30 10:15 53.35290 -5.99928 9714 ft 268 kts 183°
2026-04-30 10:15 53.33443 -5.99824 10426 ft 271 kts 168°
2026-04-30 10:15 53.31497 -5.99345 10669 ft 294 kts 168°
2026-04-30 10:16 53.29400 -5.98787 10854 ft 316 kts 168°
2026-04-30 10:16 53.27190 -5.98186 11348 ft 325 kts 168°
2026-04-30 10:16 53.24948 -5.97584 12019 ft 327 kts 168°
2026-04-30 10:17 53.20424 -5.96385 13418 ft 331 kts 168°
2026-04-30 10:17 53.15882 -5.95197 14666 ft 335 kts 168°
2026-04-30 10:17 53.13575 -5.94596 15239 ft 337 kts 168°
2026-04-30 10:18 53.11248 -5.93989 15813 ft 339 kts 168°
2026-04-30 10:18 53.08904 -5.93374 16369 ft 343 kts 168°
2026-04-30 10:18 53.06540 -5.92755 16918 ft 346 kts 168°
2026-04-30 10:19 53.01744 -5.91510 18065 ft 351 kts 168°
2026-04-30 10:19 52.99319 -5.90884 18614 ft 354 kts 168°
2026-04-30 10:19 52.96874 -5.90251 19108 ft 357 kts 168°
2026-04-30 10:19 52.94406 -5.89614 19604 ft 360 kts 168°
2026-04-30 10:20 52.91924 -5.88973 20094 ft 363 kts 168°
2026-04-30 10:20 52.86932 -5.87681 21016 ft 368 kts 168°
2026-04-30 10:20 52.84389 -5.87027 21451 ft 371 kts 168°
2026-04-30 10:21 52.81825 -5.86366 21869 ft 374 kts 168°
2026-04-30 10:21 52.79244 -5.85701 22277 ft 377 kts 168°
2026-04-30 10:21 52.76642 -5.85034 22686 ft 380 kts 169°
2026-04-30 10:21 52.74022 -5.84362 23087 ft 382 kts 168°
2026-04-30 10:22 52.71389 -5.83685 23477 ft 385 kts 169°
2026-04-30 10:22 52.68738 -5.83003 23842 ft 387 kts 169°
2026-04-30 10:22 52.66065 -5.82317 24155 ft 390 kts 169°
2026-04-30 10:22 52.63378 -5.81628 24466 ft 392 kts 169°
2026-04-30 10:23 52.60670 -5.80936 24768 ft 395 kts 169°
2026-04-30 10:23 52.57942 -5.80240 25070 ft 398 kts 169°
2026-04-30 10:23 52.55197 -5.79539 25374 ft 400 kts 169°
2026-04-30 10:23 52.52437 -5.78837 25662 ft 403 kts 169°
2026-04-30 10:24 52.49660 -5.78134 25962 ft 405 kts 169°
2026-04-30 10:24 52.46870 -5.77427 26256 ft 407 kts 169°
2026-04-30 10:24 52.44061 -5.76714 26549 ft 410 kts 169°
2026-04-30 10:24 52.41236 -5.76001 26832 ft 412 kts 169°